Temperature
14 14 14 14 14 14 14 14 14 14 14 14 14 14 14 14 14 14 14 14 14 14 14 15 15 15 15 15 15 15 15 15 15 15 15 15 15 15 15 15 15 15 15
14 14 14 14 13 13 14 14 14 14 14 14 14 14 14 14 14 14 14 14 14 14 14 14 14 15 15 15 15 15 15 15 15 15 15 15 15 15 15 15 15 15 15
14 14 13 13 13 13 13 13 13 13 13 13 13 13 13 13 13 13 14 14 14 14 14 14 14 14 14 14 15 15 15 15 15 15 15 15 15 14 14 14 14 15 15
14 13 13 13 13 13 13 13 13 13 13 13 13 13 13 13 13 13 13 13 13 14 14 14 14 14 14 14 14 14 14 14 14 14 14 14 14 14 14 14 14 14 14
13 13 13 13 13 13 13 13 13 12 13 13 13 13 13 13 13 13 13 13 13 13 13 14 14 14 14 14 14 14 14 14 14 14 14 14 14 14 14 14 14 14 14
13 13 13 13 12 12 12 12 12 12 12 12 13 13 12 12 12 12 13 13 13 13 13 13 13 13 13 13 13 13 13 14 14 14 14 13 13 13 13 13 13 14 14
12 12 12 12 12 12 12 12 12 12 12 12 12 12 12 12 12 12 12 12 12 12 12 13 13 13 13 13 13 13 13 13 13 13 13 13 13 13 13 13 13 13 13
12 12 12 12 12 12 12 12 12 12 12 12 12 12 12 12 12 12 12 12 12 12 12 12 12 13 13 13 13 13 13 13 13 13 13 13 13 13 13 13 13 13 13
11 11 11 11 11 11 11 11 11 11 11 11 11 11 11 11 11 11 11 11 11 12 12 12 12 12 12 12 12 12 12 13 13 13 12 12 12 12 12 12 12 13 13
11 11 11 11 11 11 11 11 11 11 11 11 11 11 11 11 11 11 11 11 11 11 11 12 12 12 12 12 12 12 12 12 12 12 12 12 12 12 12 12 12 12 12
10 10 10 11 11 11 11 10 10 10 10 10 11 10 10 10 10 10 11 10 11 11 11 11 11 11 12 12 12 12 12 12 12 12 11 11 12 12 12 12 12 12 12
10 10 10 10 10 10 10 10 10 10 10 10 10 10 10 10 10 10 10 10 10 10 10 11 11 11 11 11 11 11 11 11 11 11 11 11 11 11 11 11 11 11 11
9 9 9 9 10 10 10 10 10 10 10 10 10 10 10 10 10 10 10 10 10 10 10 10 10 10 11 11 11 11 11 11 11 11 10 10 11 11 11 11 11 11 11
8 9 9 9 9 9 9 9 9 9 9 9 9 9 9 9 9 9 9 9 9 9 9 10 10 10 10 10 10 10 10 10 10 10 10 10 10 10 10 10 10 10 10
8 8 8 8 8 8 9 9 9 9 9 9 9 9 9 9 9 9 9 9 9 9 9 9 9 9 9 9 9 9 9 9 9 10 10 10 9 9 10 10 10 10 10
7 7 7 7 7 7 8 8 8 8 8 8 8 8 8 8 8 8 8 8 8 8 8 8 8 8 9 9 9 9 9 9 9 9 9 9 9 9 9 9 9 9 9
7 7 7 7 7 7 7 7 7 8 8 8 8 8 8 8 8 8 8 8 8 8 8 8 8 8 8 8 8 8 8 8 8 8 8 9 9 9 9 8 8 8 8
6 6 6 6 6 6 6 7 7 7 7 7 7 7 7 7 7 7 7 7 7 7 7 7 7 7 7 7 7 7 7 7 7 8 8 8 8 8 8 8 8 8 8
5 5 5 5 6 6 6 6 6 6 6 6 6 6 6 7 6 7 7 7 7 7 7 7 6 6 6 6 7 7 7 7 7 7 7 7 7 7 7 7 7 7 8
4 5 5 5 5 5 5 5 6 6 6 6 6 6 6 6 6 6 6 6 6 6 6 6 6 6 6 6 6 6 6 6 6 6 6 6 7 7 7 7 7 7 7
4 4 4 5 5 5 5 5 5 5 5 5 5 5 5 5 5 5 5 5 5 5 5 5 5 5 5 5 5 5 5 5 6 6 6 6 6 6 6 6 6 6 6
3 4 4 4 4 4 4 4 4 5 5 5 4 4 4 4 4 5 5 5 5 5 5 5 5 5 5 5 5 4 4 4 5 5 5 5 5 5 5 5 5 6 6
3 3 3 3 3 3 3 3 3 4 4 4 4 4 4 4 4 4 4 4 4 4 4 4 4 4 4 4 4 4 4 4 4 4 4 5 5 4 5 5 5 5 5
2 2 2 3 3 3 2 3 3 3 3 3 3 3 3 3 3 3 3 3 4 3 4 4 4 4 4 4 4 4 4 4 3 3 3 4 4 4 4 4 4 4 4
1 2 2 2 2 2 2 2 2 2 2 2 2 2 2 2 3 3 3 3 3 3 3 3 3 3 3 3 3 3 3 3 3 3 2 3 3 3 4 3 4 4 4
1 1 1 1 1 1 1 1 1 2 2 2 2 2 2 2 2 2 2 2 2 2 2 3 3 3 3 3 3 3 3 3 3 3 2 2 2 3 3 3 3 3 3
Wind_Speed
2 4 2 3 6 8 8 9 9 10 11 11 11 12 12 13 13 13 13 13 13 14 14 14 15 15 16 17 17 17 17 17 17 17 17 17 18 18 19 19 19 18 20
1 2 3 5 6 7 8 9 9 10 10 11 11 11 12 12 12 12 12 13 13 14 14 14 15 16 16 17 17 17 17 17 17 16 16 17 18 18 18 18 18 17 19
2 1 3 6 7 8 8 9 9 9 10 10 10 11 11 12 12 12 12 12 13 13 14 14 15 16 16 17 17 17 17 17 17 17 16 15 16 18 18 18 18 19 19
2 3 3 6 7 8 9 9 9 9 9 9 10 10 11 11 11 12 12 12 13 14 14 15 15 16 16 17 17 17 17 17 17 17 15 14 14 17 18 18 18 18 18
4 4 4 6 7 8 8 9 9 9 9 9 9 9 10 10 11 11 12 12 13 14 15 15 16 16 16 16 16 17 17 17 17 16 15 15 14 16 17 18 18 18 18
5 4 4 6 7 8 8 8 8 8 8 9 9 9 9 9 10 10 11 12 13 14 15 15 16 16 16 16 16 17 16 16 16 15 15 14 13 16 17 18 18 18 17
5 6 5 6 7 7 7 8 8 7 8 8 9 9 9 9 9 10 10 11 13 14 15 15 15 15 15 16 16 16 16 16 15 14 13 13 13 15 16 17 17 17 17
6 7 7 7 6 6 7 7 7 7 7 8 8 8 9 9 10 9 10 11 12 13 14 14 15 15 15 15 15 15 16 15 14 13 13 13 14 15 16 16 16 16 16
7 7 7 7 6 7 6 6 7 7 7 7 8 8 9 9 9 9 10 10 11 13 14 14 14 14 14 15 15 15 15 15 14 13 12 12 14 14 15 16 16 16 16
6 7 6 7 7 6 6 6 7 8 8 8 8 9 9 9 9 9 9 10 11 12 13 14 14 14 15 15 14 14 15 14 14 13 12 13 15 15 15 15 15 15 15
5 5 6 6 7 6 6 6 7 7 8 9 8 8 8 8 8 8 9 10 11 12 13 13 14 14 14 14 14 14 13 12 13 12 11 13 14 14 14 15 15 15 15
3 4 5 5 5 6 6 6 6 6 6 7 8 8 8 8 8 8 9 10 10 11 12 13 13 13 12 11 12 12 12 12 12 11 12 13 13 13 13 14 14 15 14
1 3 5 5 5 5 5 5 5 5 6 6 7 7 8 8 7 7 7 8 9 10 10 10 10 10 11 10 10 10 11 11 10 10 12 13 13 12 12 12 12 13 13
2 2 3 5 5 5 5 5 5 4 4 4 5 6 6 5 5 5 5 6 6 6 7 8 8 9 10 11 10 10 10 9 9 10 11 12 12 12 11 11 11 11 11
1 1 2 3 4 4 4 4 4 4 4 4 4 5 5 4 4 4 4 5 5 6 6 6 7 7 8 9 9 9 9 10 10 10 10 12 12 11 11 11 11 11 11
1 1 2 3 3 4 4 3 3 4 4 4 4 4 5 4 4 3 4 4 4 5 5 6 6 6 6 7 8 8 8 8 9 9 9 10 11 10 10 10 10 10 9
1 2 2 2 4 4 4 3 3 4 4 4 3 3 4 4 4 4 3 3 4 5 6 6 6 6 6 6 6 7 7 8 8 8 8 8 9 9 9 8 8 8 8
1 2 2 3 3 3 3 3 3 3 4 3 3 3 4 4 4 4 3 3 4 5 5 5 4 4 3 4 4 4 6 6 7 7 7 8 8 7 8 8 7 7 7
1 2 2 3 3 3 3 3 3 3 4 3 3 3 3 4 4 4 3 3 4 4 4 4 3 3 3 3 3 3 4 5 5 6 6 6 6 6 6 6 6 5 5
1 2 2 3 3 3 3 3 2 3 3 3 3 3 2 2 3 4 3 3 4 3 2 3 3 3 3 3 3 3 3 3 4 4 4 5 5 6 6 6 6 5 5
2 2 2 3 3 3 2 1 1 1 1 2 3 3 2 2 3 3 3 3 3 3 2 3 3 4 2 2 3 2 3 3 3 3 4 4 4 5 6 6 6 6 5
1 1 1 2 2 2 1 1 0 0 0 1 2 3 2 1 2 2 3 3 2 2 3 3 3 2 1 1 2 2 1 1 2 2 2 2 3 4 4 4 5 5 5
0 0 1 1 1 2 1 2 2 2 1 1 2 2 3 2 1 1 2 3 2 3 4 4 4 3 2 1 1 2 3 3 1 1 1 1 1 2 2 3 3 3 3
1 0 0 1 1 1 2 2 2 1 1 1 1 1 3 2 2 1 1 2 3 2 3 4 3 3 4 3 1 0 1 2 2 1 1 1 1 0 0 0 1 1 2
1 0 0 1 1 1 2 2 2 1 0 0 0 1 1 2 2 1 0 1 2 2 2 3 3 3 3 3 3 2 1 1 1 2 2 2 1 2 1 2 2 2 1
0 0 0 0 0 1 1 1 2 2 1 1 0 1 1 1 1 2 1 1 2 2 2 3 3 4 3 3 3 3 3 3 3 3 3 3 3 2 2 2 3 3 3
Wind_Direction
264 287 234 119 111 105 101 99 97 96 93 91 90 89 87 84 82 80 76 72 70 69 73 77 78 79 79 78 78 78 78 76 75 74 76 79 83 87 89 87 86 85 88
263 246 162 122 112 104 102 102 100 99 95 93 92 92 89 87 85 82 78 74 73 74 76 81 81 81 81 79 79 78 78 77 74 73 75 77 80 84 87 88 87 87 88
39 96 120 110 104 101 101 104 103 101 98 96 96 95 92 89 87 85 81 78 75 78 80 84 82 81 80 79 77 76 76 75 72 72 74 75 80 85 86 87 88 89 88
65 95 102 107 105 100 97 99 105 102 99 98 99 99 96 92 88 85 83 81 78 79 81 81 81 80 79 79 77 76 74 73 71 70 72 73 79 86 87 86 87 88 88
63 86 106 107 106 105 102 97 104 103 100 99 101 101 99 96 91 87 85 85 84 84 82 82 82 81 80 79 79 77 75 73 70 68 69 72 78 87 88 87 86 86 88
49 64 99 107 105 107 106 102 99 107 104 98 96 97 99 99 96 90 87 86 88 87 86 85 84 81 81 80 80 78 75 72 69 67 68 71 78 88 90 87 85 85 85
44 40 61 94 103 105 104 103 102 101 109 104 100 96 93 93 97 94 89 87 88 89 89 89 86 83 81 80 79 77 75 72 70 67 66 69 79 90 92 90 88 86 84
52 42 50 64 82 100 99 98 99 101 107 107 103 101 97 93 89 91 92 91 90 90 91 91 90 87 84 81 80 77 74 74 72 69 67 71 83 88 90 91 90 88 86
51 46 42 52 64 71 80 88 93 97 101 105 105 100 96 94 90 90 91 93 93 92 91 91 91 88 84 81 80 78 75 73 72 69 70 74 83 88 89 91 91 90 88
46 40 34 44 53 60 65 73 80 82 87 87 90 89 87 87 89 90 91 94 93 93 91 90 89 85 80 77 78 76 73 70 69 68 70 78 83 85 86 88 89 89 90
34 30 30 37 45 55 65 68 70 77 81 79 75 73 81 83 81 85 89 92 92 93 91 90 89 85 80 74 74 73 70 67 67 65 71 83 86 87 87 87 87 87 89
23 13 23 31 39 53 65 65 65 68 73 75 74 69 75 79 79 84 88 89 92 92 89 87 84 82 77 70 66 67 66 64 63 62 70 81 86 87 86 85 86 87 86
45 28 18 21 35 49 56 61 58 62 67 73 77 75 79 79 80 79 81 80 82 85 83 81 76 74 75 73 69 67 66 64 61 62 67 76 84 88 88 85 86 87 86
51 31 28 25 27 38 56 57 59 59 62 66 79 85 85 78 72 74 77 76 77 82 84 81 77 76 76 74 71 68 65 65 62 62 63 72 79 82 88 87 86 88 87
40 29 39 43 38 32 52 60 58 53 56 61 78 83 89 83 78 76 75 80 78 81 85 84 82 78 78 74 70 68 64 61 60 61 60 65 74 80 83 85 87 86 86
15 23 45 63 50 47 41 54 60 58 63 60 66 81 94 98 91 87 83 74 77 85 90 92 90 82 78 80 73 67 64 63 61 62 61 60 64 71 80 83 85 85 85
30 46 56 69 53 56 47 45 60 61 69 61 56 84 97 98 99 96 97 89 81 89 93 93 88 83 79 79 74 68 64 61 62 60 60 59 60 61 72 81 85 87 85
58 57 55 49 58 54 53 43 57 68 68 63 65 79 93 100 108 101 98 96 100 99 97 98 101 98 82 79 75 66 63 61 59 61 62 61 60 57 58 67 79 88 89
80 80 78 65 68 51 49 45 56 76 71 59 62 70 88 101 113 112 100 107 110 101 95 101 101 118 109 91 82 69 61 63 60 62 64 64 66 64 61 58 63 77 83
97 89 86 77 62 54 56 43 47 68 63 57 55 56 77 97 108 114 107 112 119 111 101 105 106 97 122 118 93 70 51 59 64 62 64 66 69 72 72 69 66 64 64
102 94 97 87 73 73 75 59 56 77 51 51 41 45 59 93 111 111 112 111 123 135 142 132 131 112 109 125 100 71 36 46 64 57 60 66 63 68 73 71 71 68 62
160 137 126 112 96 90 95 137 235 196 138 61 29 31 31 70 117 116 123 134 138 144 148 146 146 133 141 152 134 125 68 359 9 36 45 62 59 66 67 67 72 68 65
276 247 174 147 121 99 87 90 60 59 63 42 20 8 1 2 43 137 138 141 151 165 177 178 174 163 175 215 179 152 161 205 247 324 359 40 58 66 69 68 67 71 75
255 282 215 150 122 108 113 121 130 147 161 261 282 314 342 4 21 48 128 146 166 175 188 190 190 194 172 188 210 208 163 160 165 220 300 321 310 241 207 125 97 90 97
242 209 240 158 133 125 138 149 149 160 179 232 24 351 346 353 1 3 138 148 164 190 204 199 200 200 192 192 197 191 162 146 164 176 224 251 280 260 244 222 208 195 184
145 141 199 150 121 147 147 156 154 168 155 130 50 310 313 320 339 348 304 212 191 197 211 211 204 207 208 204 208 205 190 183 187 185 211 221 239 254 251 233 218 212 211
Height
1520 1522 1523 1524 1525 1526 1527 1528 1529 1529 1530 1530 1531 1531 1531 1532 1532 1532 1532 1532 1532 1532 1532 1532 1532 1532 1532 1533 1533 1534 1534 1535 1535 1535 1536 1537 1539 1540 1541 1542 1543 1544 1545
1520 1521 1523 1524 1525 1526 1527 1528 1529 1530 1530 1531 1531 1532 1532 1533 1533 1533 1533 1533 1533 1533 1533 1534 1534 1534 1534 1534 1535 1535 1536 1536 1536 1536 1536 1538 1540 1542 1543 1544 1545 1546 1547
1520 1521 1522 1524 1525 1526 1527 1528 1529 1530 1531 1531 1532 1532 1533 1533 1534 1534 1534 1534 1534 1534 1534 1534 1535 1536 1536 1536 1536 1537 1537 1537 1536 1535 1536 1539 1541 1543 1544 1546 1547 1548 1548
1520 1521 1522 1524 1525 1526 1527 1528 1529 1530 1531 1531 1532 1533 1533 1534 1534 1535 1535 1535 1535 1535 1536 1536 1536 1537 1537 1537 1538 1538 1539 1539 1538 1537 1538 1541 1543 1545 1546 1547 1549 1550 1550
1520 1521 1522 1524 1525 1526 1527 1528 1529 1530 1531 1532 1532 1533 1533 1534 1534 1535 1535 1535 1536 1536 1537 1537 1538 1538 1539 1539 1539 1540 1540 1540 1540 1540 1541 1543 1544 1546 1548 1549 1550 1551 1552
1519 1521 1522 1524 1525 1526 1527 1528 1529 1530 1531 1532 1532 1533 1533 1534 1534 1535 1536 1536 1536 1536 1537 1538 1539 1539 1540 1540 1541 1541 1541 1542 1542 1543 1544 1545 1546 1548 1549 1550 1551 1552 1553
1519 1521 1522 1524 1525 1526 1527 1528 1529 1530 1531 1531 1532 1532 1533 1534 1534 1535 1535 1536 1536 1537 1537 1538 1539 1540 1540 1541 1541 1542 1543 1543 1544 1544 1545 1547 1548 1549 1550 1551 1552 1553 1554
1519 1520 1522 1523 1524 1525 1526 1528 1528 1529 1530 1531 1531 1532 1533 1533 1534 1535 1536 1536 1536 1537 1538 1539 1539 1540 1541 1541 1542 1543 1544 1544 1545 1546 1547 1548 1549 1550 1551 1552 1553 1554 1555
1519 1520 1521 1523 1524 1525 1526 1527 1528 1528 1529 1530 1531 1532 1532 1533 1534 1535 1536 1536 1536 1537 1538 1539 1540 1540 1541 1542 1543 1544 1544 1545 1546 1547 1548 1549 1550 1551 1552 1553 1554 1555 1556
1519 1520 1521 1522 1523 1524 1525 1526 1527 1527 1528 1529 1530 1531 1532 1533 1534 1534 1535 1536 1537 1537 1538 1539 1540 1540 1541 1542 1543 1544 1545 1546 1547 1548 1549 1550 1551 1552 1553 1554 1555 1556 1557
1518 1519 1520 1521 1522 1523 1524 1525 1526 1527 1527 1528 1529 1530 1531 1532 1533 1534 1535 1535 1536 1537 1538 1538 1539 1540 1541 1542 1543 1544 1545 1546 1547 1549 1550 1551 1552 1553 1553 1554 1555 1556 1557
1515 1517 1518 1519 1520 1521 1523 1524 1525 1525 1526 1527 1528 1529 1530 1531 1532 1533 1534 1535 1536 1536 1537 1538 1539 1540 1541 1542 1543 1544 1546 1547 1548 1549 1550 1551 1552 1553 1554 1555 1556 1557 1557
1514 1515 1516 1517 1519 1520 1521 1522 1523 1524 1525 1526 1527 1528 1529 1530 1531 1532 1533 1534 1534 1535 1536 1537 1539 1540 1540 1542 1543 1544 1545 1547 1548 1549 1550 1551 1552 1553 1554 1555 1556 1557 1557
1512 1513 1514 1515 1516 1518 1519 1520 1521 1522 1523 1524 1525 1526 1527 1528 1529 1530 1531 1532 1533 1534 1535 1537 1538 1539 1540 1541 1542 1544 1545 1546 1547 1549 1550 1551 1552 1553 1554 1554 1555 1557 1557
1510 1511 1512 1513 1514 1516 1517 1518 1519 1520 1521 1522 1523 1525 1525 1526 1527 1529 1530 1531 1532 1533 1534 1535 1537 1538 1539 1540 1542 1543 1544 1545 1547 1548 1549 1550 1551 1552 1553 1554 1555 1556 1557
1507 1508 1510 1511 1512 1513 1515 1516 1517 1518 1519 1520 1521 1522 1524 1524 1525 1526 1528 1529 1530 1531 1533 1534 1535 1537 1538 1539 1540 1542 1543 1544 1546 1547 1548 1549 1550 1551 1552 1553 1554 1555 1556
1505 1506 1507 1508 1510 1511 1513 1514 1515 1516 1517 1518 1519 1520 1521 1522 1523 1524 1526 1527 1528 1529 1531 1532 1534 1535 1536 1537 1539 1540 1542 1543 1544 1545 1546 1547 1549 1550 1551 1552 1553 1554 1555
1503 1504 1505 1506 1507 1509 1510 1512 1513 1514 1515 1516 1517 1518 1519 1520 1521 1522 1523 1525 1526 1527 1529 1530 1531 1533 1534 1535 1537 1538 1540 1541 1543 1544 1545 1546 1547 1548 1549 1550 1551 1552 1553
1501 1502 1503 1504 1504 1506 1508 1509 1511 1512 1513 1514 1515 1516 1517 1518 1519 1520 1521 1522 1524 1525 1526 1527 1529 1530 1532 1533 1534 1536 1537 1539 1541 1542 1543 1544 1545 1546 1547 1548 1549 1550 1551
1499 1500 1501 1502 1502 1503 1505 1506 1508 1509 1510 1511 1512 1513 1514 1515 1516 1517 1518 1520 1521 1523 1524 1525 1526 1528 1529 1530 1531 1533 1535 1536 1538 1539 1540 1541 1543 1543 1545 1546 1547 1548 1549
1496 1497 1498 1498 1499 1500 1501 1503 1504 1505 1507 1508 1509 1510 1511 1512 1514 1515 1516 1517 1518 1520 1521 1522 1524 1525 1526 1528 1529 1530 1532 1533 1535 1536 1537 1539 1540 1541 1542 1543 1544 1545 1546
1494 1494 1495 1496 1497 1497 1498 1500 1501 1502 1503 1505 1506 1508 1509 1510 1511 1512 1513 1514 1515 1517 1518 1519 1521 1521 1523 1525 1526 1527 1529 1531 1531 1533 1534 1535 1537 1538 1539 1540 1541 1542 1544
1490 1491 1492 1493 1494 1495 1496 1497 1498 1499 1500 1502 1503 1504 1505 1506 1507 1508 1509 1511 1512 1513 1514 1515 1517 1518 1519 1522 1523 1525 1526 1526 1528 1529 1530 1532 1533 1535 1536 1537 1538 1539 1541
1487 1488 1489 1490 1491 1492 1493 1494 1495 1495 1495 1497 1499 1500 1502 1503 1503 1505 1506 1507 1508 1509 1511 1512 1513 1515 1516 1518 1520 1521 1522 1523 1525 1525 1527 1528 1530 1531 1533 1534 1535 1536 1537
1484 1485 1486 1487 1488 1489 1490 1491 1491 1492 1493 1494 1496 1497 1498 1499 1500 1501 1502 1503 1504 1505 1507 1508 1509 1511 1512 1514 1515 1517 1518 1519 1521 1521 1521 1523 1526 1527 1528 1530 1531 1532 1534
1482 1482 1483 1484 1485 1486 1487 1488 1488 1489 1490 1490 1491 1492 1494 1495 1496 1497 1498 1499 1500 1501 1502 1504 1505 1507 1508 1510 1511 1513 1514 1515 1516 1517 1518 1519 1520 1522 1524 1526 1527 1528 1530